Tracking 18987 objects as of 24-Feb-2018
HD Live streaming from Space Station
objects crossing your sky now

CZ-2C R/B

Track CZ-2C R/B now!
10-day predictions


NORAD ID: 43173
Int'l Code: 2018-011E
Perigee: 400.9 km
Apogee: 611.5 km
Inclination: 35.0 °
Period: 94.6 minutes
Semi major axis: 6877 km
RCS: Unknown
Launch date: January 25, 2018
Source: People's Republic of China (PRC)
Launch site: Xichang Space Center, China (XSC)

Note: This is a ROCKET BODY
aabbcc
Your satellite tracking list
Your tracking list is empty




NASA's NSSDC Master Catalog

Two Line Element Set (TLE):
1 43173U 18011E   18055.25437127 +.00001310 +00000-0 +41172-4 0  9993
2 43173 034.9718 356.0024 0153071 281.7105 076.6471 15.22245307004582
Source of the keplerian elements: AFSPC